Tracking 25949 objects as of 8-Aug-2022
HD Live streaming from Space Station
objects crossing your sky now

COSMOS 1275 DEB

Track COSMOS 1275 DEB now!
10-day predictions


NORAD ID: 42158
Int'l Code: 1981-053RW
Perigee: 901.8 km
Apogee: 1,067.6 km
Inclination: 83.0 °
Period: 104.6 minutes
Semi major axis: 7355 km
RCS: Unknown
Launch date: June 4, 1981
Source: Commonwealth of Independent States (former USSR) (CIS)
Launch site: PLESETSK MISSILE AND SPACE COMPLEX (PKMTR)

Note: This is SATELLITE DEBRIS
aabbcc
Your satellite tracking list
Your tracking list is empty




NASA's NSSDC Master Catalog

Two Line Element Set (TLE):
1 42158U 81053RW  22220.55345205  .00001002  00000-0  96776-3 0  9995
2 42158  83.0095 143.0418 0112693  52.2466  66.7137 13.76143209437241
Source of the keplerian elements: AFSPC